Showing default

MOLNIYA 3-47, 23642

Orbit data source: Space-Track

MOLNIYA 3-47, 23642 is a Commonwealth of Independent States-origin payload satellite in HEO that was launched on Wed, 09 Aug 1995 UTC via an MOLNIYA 8K78M launch vehicle from the Plesetsk Missile And Space Complex (PKMTR). Payload-class satellites include a variety of spacecraft equipped with specific instruments for various scientific and technological missions. These include communications satellites like Starlink; space stations such as the ISS; scientific satellites like the Hubble; Earth observation satellites from companies like Planet Labs, Umbra, and HawkEye 360; GPS; miniature CubeSats for education and research; and military/defense satellites.

Loading next visibility...
Identifier
23642, 1995-042A
Orbit
HEO
Country
Flag of CISCIS
Related business
Manufacturer
NPO PM
Mission
Civil Communications
Bus & Motor
MOLNIYA-3, Unknown motor
Mass
1,750 kg wet, ~1,700 kg dry
Launch date (UTC)
1995-08-09 (31 years ago)
Launch vehicle
MOLNIYA 8K78M
Launch site
Plesetsk Missile And Space Complex (PKMTR)
Object type
Payload
Rocket body
Debris
Shape & HBR
Cyl + 6 Pan, 4.0 m
Radar Cross Section
14.563 m², Large (>1 m²)

Expand to show TLE details & history
Last TLE update: 5 days ago

TLE from 5 days ago
0 MOLNIYA 3-47
1 23642U 95042A   26158.61372355  .00000251  00000-0  00000-0 0  9999
2 23642  64.8727 269.6767 6699683 269.4941  19.7352  2.01924817226324
Epoch: 2026-06-07T14:43Z
TLE epoch observation values (Epoch: 2026-06-07T14:43:45.714Z)
Latitude
-0.00005°
Longitude
152.68135°
Altitude
8,298.455 km
Speed
6.265 km/s
True Right ascension
17h 58m 32s
True Declination
0° 00' 00"
Sunlit
Object was in daylight at epoch
Visualization orbit readout
Latitude
Unknown
Longitude
Unknown
Altitude
Unknown
Speed
Unknown
Apparent Right ascension
Unknown
Apparent Declination
Unknown
Sunlit
N/A
Visualization observer readout
Local Sidereal Time
12:34:57
Azimuth
Unknown
Elevation
Unknown
Doppler factor
Unknown
Orbital elements
Apogee altitude
37,775.707 km
Perigee altitude
2,347.878 km
Semi-major axis
26,439.93 km
Eccentricity
0.66997
Inclination
64.8727°
RAAN
269.6767°
Arg. of periapsis
269.4941°
True anomaly
90.72085°
Mean anomaly
19.7352°
Eccentric anomaly
48.4728°
Mean motion
0.50484 °/min
Orbital period
713.1 mins
BSTAR
0
Loading maneuver chart data...
Computing Atmospheric mass density...
Loading historical data...
Loading historical data...
Loading historical data...
Loading historical data...
Loading historical data...
Loading historical data...
Loading historical data...
Other satellites on launch #42 in the year 1995 (1995-08-09 UTC)

Documentation

Showing up to 5 results
|